When you browse on this site, cookies collect data to enhance your experience and personalize the content and advertising you see.
Visit our Privacy Policy to learn more. By continuing to use the site, you agree to this use of cookies and data.
  • In Österreich
  • Länderverzeichnis
  • Für 7 Tage
  • Wassertemperatur
  • Wetterkarte
  • News
  • Widgets
  • user-avatar
    Anmelden

    Stündliche Wetter Hlushytsya

    Heute, 22 September, Sonntag

    Zeit Temperatur Niederschläge Wind Luftdruck Luftfeuchtigkeit
    00:00 +12°C° 0 mm 5 m/S 750 mmHg 81%
    01:00 +12°C° 0 mm 5 m/S 750 mmHg 81%
    02:00 +12°C° 0 mm 5 m/S 750 mmHg 82%
    03:00 +12°C° 0 mm 4 m/S 749 mmHg 85%
    04:00 +11°C° 0 mm 4 m/S 749 mmHg 88%
    05:00 +10°C° 0 mm 4 m/S 749 mmHg 91%
    06:00 +11°C° 0 mm 4 m/S 749 mmHg 89%
    07:00 +11°C° 0 mm 4 m/S 749 mmHg 87%
    08:00 +11°C° 0 mm 4 m/S 749 mmHg 86%
    09:00 +13°C° 0 mm 4 m/S 749 mmHg 80%
    10:00 +14°C° 0 mm 4 m/S 750 mmHg 75%
    11:00 +15°C° 0 mm 4 m/S 750 mmHg 70%
    12:00 +17°C° 0 mm 4 m/S 749 mmHg 66%
    13:00 +18°C° 0 mm 4 m/S 749 mmHg 63%
    14:00 +19°C° 0 mm 4 m/S 748 mmHg 59%
    15:00 +19°C° 0 mm 4 m/S 748 mmHg 61%
    16:00 +19°C° 0 mm 3 m/S 747 mmHg 63%
    17:00 +19°C° 0 mm 3 m/S 747 mmHg 65%
    18:00 +17°C° 0 mm 3 m/S 747 mmHg 71%
    19:00 +14°C° 0 mm 3 m/S 747 mmHg 77%
    20:00 +14°C° 0 mm 2 m/S 747 mmHg 83%
    21:00 +13°C° 0 mm 2 m/S 748 mmHg 85%
    22:00 +13°C° 0 mm 2 m/S 748 mmHg 88%
    23:00 +12°C° 0 mm 2 m/S 748 mmHg 90%

    Morgen, 23 September, Montag

    Zeit Temperatur Niederschläge Wind Luftdruck Luftfeuchtigkeit
    00:00 +10°C° 0 mm 3 m/S 748 mmHg 90%
    01:00 +10°C° 0 mm 3 m/S 749 mmHg 89%
    02:00 +9°C° 0 mm 3 m/S 749 mmHg 89%
    03:00 +9°C° 0 mm 3 m/S 749 mmHg 88%
    04:00 +9°C° 0 mm 3 m/S 749 mmHg 86%
    05:00 +8°C° 0 mm 3 m/S 750 mmHg 85%
    06:00 +8°C° 0 mm 3 m/S 750 mmHg 83%
    07:00 +9°C° 0 mm 3 m/S 750 mmHg 82%
    08:00 +8°C° 0 mm 4 m/S 751 mmHg 80%
    09:00 +10°C° 0 mm 4 m/S 751 mmHg 74%
    10:00 +11°C° 0 mm 4 m/S 751 mmHg 68%
    11:00 +12°C° 0 mm 4 m/S 752 mmHg 62%
    12:00 +12°C° 0 mm 4 m/S 751 mmHg 58%
    13:00 +13°C° 0 mm 3 m/S 751 mmHg 54%
    14:00 +14°C° 0 mm 3 m/S 751 mmHg 50%
    15:00 +13°C° 0 mm 3 m/S 751 mmHg 51%
    16:00 +13°C° 0 mm 3 m/S 751 mmHg 52%
    17:00 +12°C° 0 mm 3 m/S 751 mmHg 53%
    18:00 +11°C° 0 mm 3 m/S 751 mmHg 55%
    19:00 +9°C° 0 mm 3 m/S 751 mmHg 57%
    20:00 +7°C° 0 mm 3 m/S 751 mmHg 59%
    21:00 +7°C° 0 mm 3 m/S 751 mmHg 59%
    22:00 +5°C° 0 mm 3 m/S 751 mmHg 60%
    23:00 +4°C° 0 mm 3 m/S 752 mmHg 60%

    übermorgen, 24 September, Dienstag

    Zeit Temperatur Niederschläge Wind Luftdruck Luftfeuchtigkeit
    00:00 +4°C° 0 mm 3 m/S 752 mmHg 61%
    01:00 +3°C° 0 mm 3 m/S 752 mmHg 62%
    02:00 +4°C° 0 mm 2 m/S 752 mmHg 63%
    03:00 +3°C° 0 mm 2 m/S 751 mmHg 64%
    04:00 +3°C° 0 mm 2 m/S 751 mmHg 66%
    05:00 +3°C° 0 mm 2 m/S 751 mmHg 67%
    06:00 +3°C° 0 mm 3 m/S 751 mmHg 63%
    07:00 +4°C° 0 mm 3 m/S 751 mmHg 59%
    08:00 +5°C° 0 mm 3 m/S 751 mmHg 55%
    09:00 +8°C° 0 mm 3 m/S 751 mmHg 50%
    10:00 +11°C° 0 mm 3 m/S 751 mmHg 45%
    11:00 +13°C° 0 mm 3 m/S 751 mmHg 40%
    12:00 +14°C° 0 mm 3 m/S 750 mmHg 40%
    13:00 +14°C° 0 mm 3 m/S 750 mmHg 41%
    14:00 +16°C° 0 mm 3 m/S 749 mmHg 41%
    15:00 +16°C° 0 mm 2 m/S 749 mmHg 45%
    16:00 +15°C° 0 mm 2 m/S 748 mmHg 50%
    17:00 +15°C° 0 mm 2 m/S 748 mmHg 54%
    18:00 +13°C° 0 mm 2 m/S 748 mmHg 58%
    19:00 +10°C° 0 mm 2 m/S 748 mmHg 62%
    20:00 +9°C° 0 mm 2 m/S 748 mmHg 67%
    21:00 +8°C° 0 mm 2 m/S 748 mmHg 68%
    22:00 +8°C° 0 mm 2 m/S 748 mmHg 69%
    23:00 +7°C° 0 mm 2 m/S 748 mmHg 69%

    25 September, Mittwoch

    Zeit Temperatur Niederschläge Wind Luftdruck Luftfeuchtigkeit
    00:00 +7°C° 0 mm 2 m/S 748 mmHg 66%
    01:00 +5°C° 0 mm 3 m/S 748 mmHg 63%
    02:00 +5°C° 0 mm 3 m/S 747 mmHg 60%
    03:00 +5°C° 0 mm 3 m/S 747 mmHg 60%
    04:00 +4°C° 0 mm 3 m/S 747 mmHg 60%
    05:00 +4°C° 0 mm 3 m/S 747 mmHg 60%
    06:00 +5°C° 0 mm 3 m/S 747 mmHg 58%
    07:00 +7°C° 0 mm 3 m/S 746 mmHg 57%
    08:00 +7°C° 0 mm 4 m/S 746 mmHg 56%
    09:00 +10°C° 0 mm 4 m/S 746 mmHg 54%
    10:00 +12°C° 0 mm 4 m/S 746 mmHg 52%
    11:00 +14°C° 0 mm 4 m/S 746 mmHg 49%
    12:00 +17°C° 0 mm 4 m/S 745 mmHg 50%
    13:00 +18°C° 0 mm 4 m/S 745 mmHg 50%
    14:00 +20°C° 0 mm 4 m/S 744 mmHg 50%
    15:00 +19°C° 0 mm 3 m/S 744 mmHg 54%
    16:00 +19°C° 0 mm 3 m/S 744 mmHg 57%
    17:00 +18°C° 0 mm 2 m/S 743 mmHg 60%
    18:00 +17°C° 0 mm 3 m/S 743 mmHg 63%
    19:00 +16°C° 0 mm 3 m/S 743 mmHg 66%
    20:00 +14°C° 0 mm 3 m/S 743 mmHg 69%
    21:00 +14°C° 0.2 mm 3 m/S 743 mmHg 73%
    22:00 +14°C° 0.2 mm 3 m/S 743 mmHg 76%
    23:00 +14°C° 0.2 mm 3 m/S 743 mmHg 80%

    26 September, Donnerstag

    Zeit Temperatur Niederschläge Wind Luftdruck Luftfeuchtigkeit
    00:00 +13°C° 0.1 mm 3 m/S 743 mmHg 83%
    01:00 +13°C° 0.1 mm 3 m/S 743 mmHg 86%
    02:00 +13°C° 0.1 mm 3 m/S 743 mmHg 89%
    03:00 +13°C° 0 mm 3 m/S 743 mmHg 91%
    04:00 +12°C° 0 mm 3 m/S 743 mmHg 92%
    05:00 +12°C° 0 mm 3 m/S 743 mmHg 93%
    06:00 +12°C° 0.1 mm 3 m/S 743 mmHg 92%
    07:00 +12°C° 0.1 mm 3 m/S 743 mmHg 91%
    08:00 +13°C° 0.1 mm 3 m/S 743 mmHg 90%
    09:00 +14°C° 0 mm 3 m/S 743 mmHg 84%
    10:00 +16°C° 0 mm 3 m/S 743 mmHg 79%
    11:00 +18°C° 0 mm 3 m/S 743 mmHg 73%
    12:00 +18°C° 0.3 mm 3 m/S 743 mmHg 69%
    13:00 +19°C° 0.3 mm 3 m/S 743 mmHg 66%
    14:00 +20°C° 0.3 mm 3 m/S 743 mmHg 62%
    15:00 +19°C° 0.5 mm 3 m/S 743 mmHg 66%
    16:00 +19°C° 0.5 mm 3 m/S 743 mmHg 70%
    17:00 +18°C° 0.5 mm 3 m/S 743 mmHg 73%
    18:00 +16°C° 0 mm 3 m/S 743 mmHg 79%
    19:00 +15°C° 0 mm 2 m/S 743 mmHg 85%
    20:00 +13°C° 0 mm 2 m/S 743 mmHg 91%
    21:00 +13°C° 0 mm 2 m/S 743 mmHg 92%
    22:00 +13°C° 0 mm 2 m/S 744 mmHg 93%
    23:00 +13°C° 0 mm 2 m/S 744 mmHg 94%

    27 September, Freitag

    Zeit Temperatur Niederschläge Wind Luftdruck Luftfeuchtigkeit
    00:00 +12°C° 0 mm 3 m/S 744 mmHg 95%
    01:00 +11°C° 0 mm 3 m/S 744 mmHg 96%
    02:00 +11°C° 0 mm 3 m/S 744 mmHg 97%
    03:00 +11°C° 0 mm 3 m/S 745 mmHg 97%
    04:00 +11°C° 0 mm 3 m/S 745 mmHg 97%
    05:00 +11°C° 0 mm 3 m/S 745 mmHg 96%
    06:00 +11°C° 0.1 mm 3 m/S 745 mmHg 95%
    07:00 +12°C° 0.1 mm 3 m/S 745 mmHg 94%
    08:00 +12°C° 0.1 mm 3 m/S 745 mmHg 93%
    09:00 +12°C° 0.5 mm 3 m/S 745 mmHg 93%
    10:00 +13°C° 0.5 mm 2 m/S 746 mmHg 92%
    11:00 +14°C° 0.5 mm 2 m/S 746 mmHg 92%
    12:00 +13°C° 0.4 mm 3 m/S 746 mmHg 88%
    13:00 +13°C° 0.4 mm 3 m/S 746 mmHg 85%
    14:00 +14°C° 0.4 mm 4 m/S 746 mmHg 82%
    15:00 +13°C° 0 mm 4 m/S 746 mmHg 81%
    16:00 +13°C° 0 mm 3 m/S 747 mmHg 79%
    17:00 +13°C° 0 mm 3 m/S 747 mmHg 78%
    18:00 +12°C° 0 mm 3 m/S 747 mmHg 81%
    19:00 +10°C° 0 mm 2 m/S 748 mmHg 84%
    20:00 +10°C° 0 mm 1 m/S 748 mmHg 87%
    21:00 +10°C° 0 mm 1 m/S 748 mmHg 88%
    22:00 +10°C° 0 mm 1 m/S 749 mmHg 90%
    23:00 +9°C° 0 mm 1 m/S 749 mmHg 91%
    Mehr zeigen